User: anonymous   Login
Location: Gu�tanj
(46.5431°N, 14.9692°E)
Time: 05:44:21
(UTC+00:00)
Language:

Cosmos 2219 Rocket - Orbit

View from above orbital plane
View from above orbital plane
View from above satellite
View from above satellite

Ground track
Ground track

The orbit data is extracted from the following two-line orbital elements,

1 22220U 92076B   21127.93607057 -.00000143  00000-0 -47586-4 0  9996
2 22220  70.9992 308.5224 0015083 267.9957 199.7818 14.16467742471627
Epoch (UTC): 07 May 2021 22:27:56
Eccentricity: 0.0015083
inclination: 70.9992°
perigee height: 826 km
apogee height: 848 km
right ascension of ascending node: 308.5224°
argument of perigee: 267.9957°
revolutions per day: 14.16467742
mean anomaly at epoch: 199.7818°
orbit number at epoch: 47162

The dashed part of the orbit path shows where the satellite is in the earth's shadow,  

DLR